Regional Weather Roundup
Issued by NWS Nashville, TN

Home | Current Version | Previous Version | Text Only | Print | Product List | Glossary On
Versions: 1 2 3 4 5 6 7 8 9 10 11 12 13 14 15 16 17 18 19 20 21 22 23 24 25 26 27 28 29 30 31 32 33 34 35 36 37 38 39 40 41 42 43 44 45 46 47 48 49 50
000
ASUS44 KOHX 271010
RWROHX
MIDDLE TENNESSEE HOURLY WEATHER ROUNDUP
NATIONAL WEATHER SERVICE NASHVILLE TN
500 AM CDT WED JUL 27 2016

NOTE: "FAIR" INDICATES FEW OR NO CLOUDS BELOW 12,000 FEET WITH
NO SIGNIFICANT WEATHER AND/OR OBSTRUCTIONS TO VISIBILITY.

* THESE REPORTS ARE NOT UNDER NWS QUALITY CONTROL AND MAY NOT
  REPORT WEATHER SUCH AS PRECIPITATION AND FOG.


TNZ005>011-023>034-057-059-062>066-078-080-271100
...NORTHERN MIDDLE TENNESSEE...

CITY           SKY/WX    TMP DP  RH WIND       PRES   REMARKS
CLARKSVILLE    CLEAR     74  72  93 CALM      29.97S
CROSSVILLE     CLEAR     73  69  87 SW5       30.08R
NASHVILLE      PTCLDY    75  72  90 CALM      30.00R
SMYRNA         CLEAR     74  73  96 SE5       30.00R
SPARTA         CLEAR     73  72  94 CALM      30.03R
$$
TNZ056-058-060-061-075>077-079-093>097-271100
...SOUTHERN MIDDLE TENNESSEE...

CITY           SKY/WX    TMP DP  RH WIND       PRES   REMARKS
COLUMBIA       CLEAR    N/A N/A N/A CALM      29.98R
FAYETTEVILLE   PTCLDY    75  72  88 CALM      30.03R
MCMINNVILLE    CLEAR     73  73 100 CALM      30.03R
SHELBYVILLE    CLEAR     73  73 100 E5        30.02R
TULLAHOMA      CLEAR     73  70  88 CALM      30.04R
WINCHESTER     CLEAR     73  72  94 CALM      30.03R
$$


...KEY TO REMARKS...
VSB - VISIBILITY IN MILES
WCI - WIND CHILL INDEX
HX  - HEAT INDEX




USA.gov is the U.S. government's official web portal to all federal, state and local government web resources and services.